Wind_Speed
5 5 4 6 3 4 4 4 7 4 8 4 5 11 7 14 19 12 14 16 18 17 14 13 12 11 9 9 9 13 13 12 10 9 13 15 12 13 22 30 32 32 36 36
6 1 5 6 4 2 3 5 6 7 4 5 7 17 11 5 8 11 13 20 19 17 15 13 13 11 11 12 12 12 15 16 15 13 13 17 21 18 14 18 27 35 34 34
3 2 6 4 4 7 4 4 5 7 5 5 7 7 2 6 18 23 23 20 18 17 16 15 16 17 16 17 18 18 16 17 18 17 14 13 17 21 21 15 21 26 33 34
3 3 6 6 4 3 3 5 6 9 8 4 4 8 2 3 7 9 15 17 16 16 17 17 19 21 22 23 22 22 21 20 19 19 19 19 19 22 24 25 19 22 28 32
5 6 6 5 3 3 3 4 7 6 5 3 2 2 4 3 3 4 7 12 14 15 17 19 19 21 22 23 24 26 24 21 21 21 21 23 22 21 21 25 19 21 22 26
3 5 4 4 1 4 7 4 6 3 0 3 4 1 4 2 2 2 5 12 14 16 16 18 21 25 28 28 26 24 30 26 22 19 18 24 23 23 21 23 20 21 17 19
6 2 2 6 5 6 7 9 5 5 2 7 3 6 6 3 5 6 4 9 13 13 15 18 22 26 30 30 26 23 24 22 18 23 22 26 24 21 23 22 20 21 17 18
3 5 4 6 3 3 2 4 3 6 3 10 8 6 4 4 4 2 6 8 12 15 14 17 23 28 28 24 22 21 20 23 21 21 24 27 25 21 23 19 22 24 16 13
5 4 3 6 3 1 5 3 2 5 11 7 4 6 1 3 4 7 9 9 11 14 15 17 20 24 23 22 18 17 19 17 17 15 15 20 21 18 22 17 23 25 15 13
1 6 2 4 4 4 5 3 3 2 4 5 5 6 9 5 7 8 9 13 15 14 11 13 17 21 17 16 17 18 20 21 19 17 18 21 22 18 18 16 21 20 11 13
1 3 4 2 1 6 4 3 2 2 2 3 6 6 3 8 9 7 10 13 16 15 13 11 14 17 16 15 18 20 24 24 23 22 23 23 23 20 19 16 16 16 10 9
4 1 4 8 9 2 4 4 4 3 7 3 4 16 13 11 9 13 14 21 24 17 14 12 11 15 17 15 15 16 25 31 33 25 24 24 24 22 19 14 17 8 9 12
5 3 5 8 5 4 2 2 3 2 2 13 6 9 4 8 10 21 19 29 28 21 15 14 11 12 16 16 17 19 25 30 34 36 28 25 23 20 19 16 16 11 15 15
13 4 7 10 10 2 9 8 5 6 7 8 12 14 19 15 14 22 23 26 25 18 14 15 15 12 13 18 20 22 26 30 33 38 38 26 23 20 19 16 13 10 14 19
3 5 4 9 9 7 15 19 20 14 16 8 21 17 20 17 14 20 21 18 10 9 12 14 15 15 13 18 21 22 25 29 33 38 37 30 22 21 19 12 10 7 12 22
2 8 3 21 15 14 19 18 20 21 17 13 18 20 14 20 13 9 7 8 7 12 17 19 20 18 17 20 20 23 25 29 34 38 38 36 22 22 18 11 12 12 14 27
5 6 8 20 10 7 8 11 9 4 6 5 5 8 4 6 5 6 6 8 11 14 17 21 23 22 21 21 22 24 26 30 36 38 40 39 25 23 19 16 14 11 16 32
4 4 6 8 2 5 7 6 8 10 13 6 4 5 4 5 2 1 5 10 14 17 20 24 25 24 22 20 19 22 27 33 37 39 40 40 25 23 19 22 11 10 15 29
12 4 3 3 3 8 7 5 4 3 5 2 1 4 6 5 5 7 6 10 15 18 20 17 19 22 21 17 17 23 30 34 36 39 40 37 23 23 18 21 8 10 32 38
6 1 2 2 5 4 2 5 19 1 4 4 4 5 7 4 4 4 12 14 18 18 16 20 21 22 21 20 22 26 28 36 41 39 38 31 21 19 19 12 6 21 27 39
4 4 4 7 8 5 5 21 17 2 4 21 15 11 8 4 7 13 13 15 17 21 22 23 23 23 23 23 24 26 35 38 35 31 31 30 17 13 18 4 12 23 29 40
3 2 3 2 3 3 5 18 3 12 26 24 28 20 11 11 12 12 14 17 20 24 27 25 26 25 26 27 25 37 38 37 29 27 28 28 13 7 11 7 23 23 29 42
3 5 3 3 6 25 33 23 29 31 27 34 28 19 12 12 11 13 17 19 23 27 28 27 28 30 27 31 43 39 33 30 27 25 26 21 6 5 2 19 29 29 39 39
5 12 6 4 8 15 33 35 33 25 33 22 16 12 9 10 11 14 17 21 26 28 28 29 30 29 41 44 39 34 33 28 25 25 23 11 4 2 8 21 28 24 42 44
11 5 6 11 22 27 27 19 22 31 29 14 7 6 7 8 12 15 20 24 26 27 29 28 30 38 45 40 35 32 27 23 22 22 18 7 2 8 13 18 33 30 40 35
15 17 6 9 24 16 26 32 30 33 30 14 8 8 8 9 13 17 21 24 26 28 28 29 39 48 44 40 39 27 16 15 20 20 12 11 12 11 19 27 26 32 35 33
Wind_Direction
10 38 320 296 238 278 309 278 278 261 272 301 254 284 273 286 277 315 15 83 96 81 77 68 53 38 27 17 12 16 11 9 346 335 328 312 311 275 260 254 255 257 251 261
11 8 298 284 326 327 301 286 288 284 331 319 299 292 277 280 41 40 85 87 77 67 60 53 44 37 27 17 12 9 10 8 358 349 341 332 326 325 306 274 261 253 252 252
188 273 3 37 16 15 340 2 324 281 309 243 316 308 106 64 58 73 76 74 65 51 35 24 20 14 7 5 4 2 1 359 358 352 332 309 312 319 328 304 272 263 252 252
257 322 21 15 34 3 301 336 326 317 342 305 61 290 359 63 69 50 47 52 41 29 20 11 3 359 355 353 348 343 341 346 352 350 342 338 317 317 327 322 299 271 258 251
269 352 345 48 19 338 300 305 294 276 261 319 256 275 258 172 53 21 14 23 42 37 23 17 13 5 358 340 324 323 326 336 344 344 344 332 333 316 312 319 305 286 271 255
272 337 45 359 164 63 296 327 295 319 185 297 126 21 277 327 274 168 39 29 12 9 8 9 6 0 350 338 335 324 307 300 328 338 346 337 333 325 316 316 312 295 283 244
333 24 123 29 28 350 21 24 335 336 4 266 9 346 254 61 21 61 28 353 1 8 7 2 359 354 348 344 346 339 337 318 310 331 332 334 331 322 313 313 302 300 289 250
359 332 32 347 69 316 340 115 181 279 279 296 313 249 269 123 71 354 322 337 359 351 354 357 357 349 348 346 346 347 341 344 340 341 328 315 328 315 314 308 306 299 270 246
349 272 314 63 325 51 328 51 317 263 268 287 245 299 189 217 318 335 319 327 340 323 325 343 352 347 345 346 354 355 360 355 355 351 338 327 328 317 314 310 307 305 250 236
325 296 321 314 20 74 102 253 337 306 310 293 292 292 275 232 265 277 304 320 320 312 312 333 347 351 350 355 351 353 349 346 343 332 331 327 327 320 311 310 310 320 245 224
358 170 286 334 170 280 353 324 32 187 263 272 303 275 243 258 263 269 280 296 305 298 289 316 341 357 349 346 344 358 359 350 338 330 319 318 318 322 315 299 304 320 259 206
332 249 272 246 266 245 181 187 124 132 286 237 250 273 270 279 252 242 270 299 300 298 285 294 327 345 350 343 348 353 356 2 2 338 323 321 314 312 318 295 288 287 240 187
337 320 327 325 11 2 92 214 198 191 159 263 260 275 308 288 270 256 254 275 293 291 277 285 303 328 341 337 335 338 344 350 353 354 335 323 324 312 320 311 307 246 225 229
289 186 206 255 264 212 295 276 265 216 271 277 255 282 294 294 282 278 278 293 297 286 276 290 290 301 322 336 329 335 336 337 343 349 350 329 326 319 324 312 315 245 239 225
355 259 233 263 275 282 274 286 283 255 252 249 279 287 284 293 290 287 295 302 307 268 297 314 318 298 307 333 334 331 335 332 339 342 345 339 323 323 329 309 317 287 241 206
228 272 288 290 287 271 278 278 266 269 267 249 256 273 271 288 313 332 324 314 317 323 326 324 328 317 303 319 318 320 321 328 332 336 340 342 326 323 330 291 333 294 238 193
237 268 285 278 285 302 279 254 257 252 239 220 237 262 303 303 335 360 7 347 336 334 337 335 330 325 319 309 302 309 318 325 327 332 336 341 327 323 326 312 285 292 226 197
220 196 248 279 312 255 245 286 248 251 271 237 267 279 308 302 275 319 328 320 325 332 329 324 323 316 309 310 297 305 317 321 323 328 332 335 329 321 319 332 282 264 228 196
205 197 258 215 200 277 294 314 359 337 299 252 230 310 307 302 269 288 314 333 329 327 325 327 333 335 337 333 315 313 313 317 320 323 327 329 328 320 316 330 278 245 184 184
56 357 225 278 249 257 273 317 333 285 298 332 291 299 290 303 331 269 330 331 330 331 325 322 324 322 322 317 311 311 317 319 317 317 320 325 322 316 319 351 358 173 165 162
339 341 269 282 274 269 359 325 305 71 269 317 315 301 278 246 252 312 319 323 325 328 327 325 323 319 316 316 316 313 316 319 317 317 314 319 315 312 322 126 164 166 159 144
238 207 252 263 275 232 6 341 31 301 306 300 308 290 275 285 306 312 318 322 330 333 331 329 326 324 320 317 314 313 311 315 310 306 306 313 306 301 327 142 152 134 134 143
293 192 291 203 259 301 300 294 299 302 290 298 300 288 281 289 309 319 320 325 331 333 331 329 325 322 325 322 319 312 305 308 303 297 299 304 297 283 142 174 152 153 150 151
265 265 255 323 257 285 299 295 299 317 326 308 302 275 278 295 316 320 325 330 331 332 330 328 326 325 325 324 314 306 299 294 288 287 293 283 284 82 163 173 159 168 147 148
243 262 243 264 282 282 282 293 316 320 326 337 323 289 286 311 321 325 328 330 332 332 331 333 333 329 318 319 314 309 294 280 268 268 274 222 144 135 176 167 141 148 147 146
240 255 237 258 267 274 283 294 305 309 315 315 318 304 308 320 319 320 328 334 334 333 333 333 335 324 330 327 322 320 296 254 244 246 228 163 135 167 163 165 153 153 154 154
Height
1514 1520 1524 1519 1517 1516 1517 1519 1520 1512 1504 1503 1500 1495 1492 1487 1482 1482 1482 1481 1483 1485 1487 1485 1483 1480 1478 1475 1472 1469 1466 1464 1462 1459 1456 1454 1454 1453 1452 1452 1452 1453 1454 1454
1521 1524 1519 1515 1514 1515 1515 1518 1519 1508 1503 1504 1499 1491 1487 1484 1487 1487 1486 1486 1488 1489 1487 1484 1482 1480 1477 1475 1471 1468 1466 1464 1461 1457 1454 1451 1448 1447 1447 1446 1444 1444 1446 1446
1523 1518 1516 1516 1517 1518 1518 1522 1521 1519 1506 1501 1498 1494 1485 1486 1492 1491 1492 1491 1489 1489 1488 1486 1483 1481 1479 1476 1473 1469 1464 1461 1459 1455 1452 1449 1447 1443 1440 1440 1438 1437 1437 1438
1522 1518 1518 1518 1519 1520 1521 1519 1517 1513 1514 1517 1501 1506 1490 1497 1498 1496 1495 1493 1493 1491 1489 1487 1484 1482 1480 1477 1474 1471 1467 1463 1457 1453 1450 1447 1444 1439 1437 1434 1433 1431 1429 1430
1525 1520 1521 1523 1524 1520 1523 1518 1517 1511 1513 1511 1506 1517 1498 1496 1500 1501 1498 1497 1495 1493 1490 1487 1484 1481 1478 1476 1472 1468 1465 1462 1459 1452 1446 1447 1440 1438 1434 1430 1428 1426 1424 1423
1523 1521 1523 1523 1522 1522 1520 1518 1514 1514 1516 1522 1515 1518 1511 1501 1498 1500 1500 1499 1496 1493 1490 1487 1485 1481 1477 1473 1470 1464 1460 1457 1459 1453 1447 1445 1438 1436 1429 1427 1424 1422 1418 1418
1532 1526 1526 1525 1527 1525 1525 1526 1540 1529 1520 1513 1512 1514 1507 1504 1503 1504 1503 1499 1496 1493 1489 1486 1482 1479 1476 1470 1465 1462 1457 1454 1452 1448 1442 1441 1437 1432 1429 1425 1421 1418 1414 1412
1546 1538 1529 1531 1532 1533 1532 1536 1554 1546 1537 1520 1515 1515 1502 1505 1503 1502 1500 1497 1495 1495 1490 1486 1481 1478 1472 1469 1465 1461 1458 1451 1447 1439 1439 1441 1436 1430 1429 1424 1418 1414 1410 1409
1551 1541 1532 1533 1534 1534 1538 1543 1537 1543 1530 1536 1517 1508 1507 1505 1502 1499 1496 1494 1490 1491 1488 1484 1481 1477 1472 1468 1466 1462 1457 1453 1447 1443 1440 1438 1436 1428 1425 1420 1415 1410 1405 1405
1549 1554 1539 1535 1532 1533 1538 1538 1545 1544 1564 1545 1523 1517 1504 1504 1500 1496 1493 1491 1490 1489 1486 1483 1480 1476 1472 1468 1465 1461 1457 1451 1446 1442 1439 1434 1432 1426 1421 1417 1413 1407 1401 1403
1548 1552 1545 1539 1537 1539 1543 1542 1541 1546 1543 1546 1539 1517 1505 1503 1497 1496 1493 1490 1487 1485 1483 1481 1479 1474 1471 1467 1463 1458 1454 1448 1444 1438 1435 1431 1428 1423 1419 1416 1411 1405 1400 1399
1551 1552 1553 1542 1533 1534 1537 1538 1543 1566 1560 1554 1548 1514 1500 1497 1495 1493 1490 1488 1485 1482 1481 1480 1476 1472 1469 1465 1461 1458 1453 1447 1441 1436 1432 1428 1425 1421 1416 1412 1410 1404 1402 1402
1557 1562 1564 1545 1541 1538 1538 1540 1539 1545 1554 1536 1538 1513 1497 1496 1494 1490 1487 1482 1481 1479 1477 1476 1474 1471 1467 1464 1460 1456 1450 1444 1441 1435 1428 1424 1421 1417 1412 1410 1407 1403 1401 1402
1554 1556 1556 1550 1543 1547 1542 1539 1541 1545 1537 1534 1521 1511 1498 1494 1491 1484 1481 1479 1476 1474 1474 1473 1471 1469 1466 1462 1458 1454 1449 1444 1440 1433 1428 1422 1417 1413 1410 1407 1404 1401 1399 1400
1554 1556 1552 1546 1543 1541 1535 1532 1530 1533 1526 1528 1506 1508 1496 1492 1486 1480 1478 1476 1473 1472 1473 1471 1469 1466 1463 1459 1455 1451 1448 1444 1438 1432 1426 1421 1417 1411 1405 1401 1400 1397 1397 1398
1551 1550 1548 1539 1539 1537 1529 1523 1516 1512 1511 1513 1508 1503 1492 1487 1482 1478 1476 1474 1474 1474 1472 1469 1466 1463 1460 1457 1453 1449 1446 1441 1436 1431 1425 1417 1411 1407 1400 1397 1394 1394 1393 1397
1554 1551 1549 1538 1534 1534 1531 1511 1508 1505 1502 1500 1504 1495 1488 1485 1482 1480 1478 1476 1474 1472 1469 1466 1463 1459 1456 1453 1449 1445 1442 1436 1430 1426 1419 1413 1407 1402 1398 1393 1392 1391 1390 1395
1547 1552 1546 1537 1535 1540 1510 1503 1502 1501 1495 1494 1493 1490 1487 1484 1482 1480 1478 1476 1473 1470 1466 1462 1459 1454 1451 1447 1444 1441 1437 1431 1425 1421 1416 1409 1403 1399 1396 1392 1388 1385 1388 1391
1536 1542 1539 1547 1541 1522 1506 1499 1500 1498 1495 1491 1489 1488 1486 1484 1482 1479 1478 1475 1472 1467 1463 1459 1455 1451 1447 1444 1441 1438 1433 1427 1421 1416 1412 1406 1401 1395 1392 1390 1386 1382 1380 1389
1538 1539 1543 1540 1529 1523 1504 1500 1497 1495 1500 1491 1489 1487 1485 1484 1487 1480 1476 1473 1469 1465 1460 1456 1452 1448 1444 1441 1438 1433 1429 1422 1417 1412 1408 1404 1400 1395 1391 1386 1380 1380 1379 1389
1551 1551 1547 1536 1526 1515 1511 1506 1498 1504 1508 1494 1491 1486 1484 1483 1481 1477 1474 1471 1466 1462 1457 1453 1448 1444 1439 1436 1432 1427 1424 1418 1412 1407 1404 1401 1398 1394 1392 1387 1384 1381 1387 1392
1554 1561 1554 1538 1526 1513 1508 1506 1511 1504 1496 1493 1488 1485 1482 1480 1478 1475 1472 1468 1463 1459 1453 1448 1443 1439 1434 1430 1426 1420 1415 1412 1407 1405 1401 1397 1395 1392 1391 1389 1387 1390 1393 1394
1551 1542 1536 1538 1524 1509 1508 1509 1504 1501 1495 1486 1483 1481 1480 1478 1476 1473 1470 1466 1461 1456 1450 1445 1439 1433 1428 1425 1419 1408 1406 1404 1401 1400 1398 1395 1395 1396 1391 1391 1390 1394 1398 1403
1537 1532 1533 1531 1512 1509 1507 1502 1499 1496 1489 1480 1478 1478 1478 1477 1474 1471 1468 1463 1458 1452 1446 1440 1434 1428 1421 1416 1409 1403 1397 1397 1394 1394 1396 1394 1393 1393 1394 1394 1394 1397 1400 1407
1530 1529 1524 1518 1511 1506 1499 1498 1497 1492 1487 1482 1479 1478 1477 1475 1473 1470 1466 1461 1456 1449 1443 1436 1430 1422 1413 1405 1398 1393 1388 1387 1386 1388 1390 1391 1392 1394 1396 1398 1398 1403 1408 1415
1521 1517 1521 1511 1503 1504 1497 1494 1492 1490 1486 1483 1480 1478 1476 1474 1471 1468 1464 1459 1453 1446 1439 1432 1424 1413 1402 1393 1384 1378 1376 1378 1378 1382 1386 1390 1392 1396 1398 1400 1403 1408 1414 1422